Location: Aurora Center
(43.5271°N, 98.5894°W)
Time: 08:38:53
(UTC-05:00)

ACS3 Solar Sail - Pass Details

Date: 20 June 2024
Orbit: 992 x 1023 km, 97.4° (Epoch: 11 July)

Event Time Altitude Azimuth Distance (km) Brightness Sun altitude
Exits shadow 01:03:20 - 239° (WSW) 3,267 7.3 -22.6°
Reaches altitude 10° 01:06:56 10° 269° (W) 2,766 7.2 -22.7°
Maximum altitude 01:07:51 10° 277° (W) 2,743 7.3 -22.7°
Drops below altitude 10° 01:08:46 10° 286° (WNW) 2,767 7.4 -22.7°
Sets 01:14:18 0° 326° (NW) 3,719 8.9 -22.8°
